Regional Weather Roundup
Issued by NWS

Home | Current Version | Previous Version | Graphics & Text | Print | Product List | Glossary On
Versions: 1 2 3 4 5 6 7 8 9 10 11 12 13 14 15 16 17 18 19 20 21 22 23 24 25 26 27
000
ASUS45 KTFX 220510
RWRMT
MONTANA REGIONAL WEATHER ROUNDUP
NATIONAL WEATHER SERVICE GREAT FALLS MT
1000 PM MST SAT JAN 21 2017

NOTE: "FAIR" INDICATES FEW OR NO CLOUDS BELOW 12000 FEET WITH NO
SIGNIFICANT WEATHER AND/OR OBSTRUCTIONS TO VISIBILITY.

MTZ001>007-043-220600-
WEST OF THE DIVIDE

CITY           SKY/WX    TMP DP  RH WIND       PRES   REMARKS
KALISPELL      LGT SNOW  26  24  92 CALM      29.74R
MISSOULA       CLOUDY    22  21  96 S5        29.76R FOG
BUTTE          CLOUDY    14  10  84 SE3       29.70R
MULLAN PASS    LGT SNOW  26  23  88 S7        29.62R VSB 1   WCI  18
ANACONDA         N/A     19  16  86 CALM      29.71R
DEER LODGE       N/A     19  16  86 CALM      29.74R
EUREKA           N/A     25  23  93 CALM      29.76R
HAMILTON         N/A     25  21  86 CALM        N/A
PLAINS           N/A     24  20  85 CALM      29.77R
RONAN            N/A     23  20  89 CALM      29.78R
$$

MTZ008-052>055-220600-
SOUTHWEST MONTANA

CITY           SKY/WX    TMP DP  RH WIND       PRES   REMARKS
BOZEMAN        CLOUDY    19  15  84 CALM      29.73R
DILLON         CLOUDY   N/A N/A N/A S8        29.71R
W YELLOWSTONE  CLOUDY    23  21  93 SW12      29.73R WCI  12
ENNIS          CLOUDY    28  21  74 S13       29.76R WCI  18
TWIN BRIDGES     N/A     17   9  71 E5        29.74R
$$

MTZ009-010-012-014-046-048-049-054-220600-
EAST SLOPES AND CENTRAL MONTANA

CITY           SKY/WX    TMP DP  RH WIND       PRES   REMARKS
CUT BANK       CLEAR     21  16  81 NW9       29.68R WCI  11
GREAT FALLS    CLOUDY    27  22  81 SW6       29.68R WCI  20
MALMSTROM AFB  CLOUDY    27  23  86 SW8       29.69R WCI  18
HELENA         CLOUDY    15  11  83 CALM      29.73R
AUGUSTA          N/A     27  19  72 CALM      29.66R
BOWMANS CRNR     N/A     24  17  76 S10       29.65R WCI  13
CHOTEAU          N/A     27  21  80 W3        29.69R
CONRAD           N/A     16  14  91 W2        29.72R
POWER          CLOUDY    20  19  93 W8        29.67R WCI  11
RAYNESFORD       N/A     21  17  83 CALM      29.68R
ULM            MOCLDY    22  19  87 MISG      29.69R
$$

MTZ011-013-016-021-045-047-050-051-220600-
NORTH CENTRAL MONTANA

CITY           SKY/WX    TMP DP  RH WIND       PRES   REMARKS
HAVRE          CLEAR     21  19  92 SW12      29.67R WCI   9
LEWISTOWN      CLOUDY    23  17  78 CALM      29.65R
CHINOOK          N/A     25  23  93 W10       29.66R WCI  15
DENTON           N/A     23  20  89 S12       29.64R WCI  11
FORT BENTON      N/A     27  21  80 MISG      29.71R
GEYSER           N/A     25  19  78 SW14      29.66R WCI  13
GRASS RANGE      N/A     27  21  77 W16       29.62R WCI  15
JUDITH GAP       N/A     21  16  81 W3        29.65R
ROY              N/A     27  22  81 MISG      29.63R
STANFORD         N/A     23  17  78 CALM      29.65R
WINIFRED         N/A     28  23  81 W10       29.65R WCI  19
$$

MTZ017>020-022>027-061-062-220600-
NORTHEAST MONTANA

CITY           SKY/WX    TMP DP  RH WIND       PRES   REMARKS
GLASGOW        CLOUDY    18  15  88 NE5       29.63R
JORDAN           N/A     22  19  89 W8        29.63R WCI  12
SIDNEY         CLOUDY    22  21  96 S3        29.63R
WOLF POINT     FOG       12   9  87 SW6       29.64R VSB 1/4 WCI   3
PLENTYWOOD       N/A     28  28 100 NW13      29.58R WCI  18
POPLAR           N/A     18  18 100 W7        29.63R VSB 1/4 WCI   8
SCOBEY           N/A     28  22  78 NW10      29.60R WCI  19
$$

MTZ028>42-056>058-220600-
SOUTHCENTRAL AND SOUTHEAST MONTANA

CITY           SKY/WX    TMP DP  RH WIND       PRES   REMARKS
BAKER          CLOUDY    17  14  88 NW5       29.63R
BILLINGS       CLOUDY    29  20  69 SW14      29.67R WCI  18
LIVINGSTON     CLOUDY    30  19  63 NW8       29.68R WCI  22
MILES CITY     CLOUDY    19  15  84 SW5       29.66R
BIG TIMBER     CLOUDY    32  19  59 SW15      29.69R WCI  22
FORSYTH          N/A     21  21 100 W6        29.66R WCI  14
HARLOWTON        N/A     24  17  73 W20       29.66R WCI  10
LAUREL           N/A     25  15  65 SW5       29.69R
$$

REGIONAL REPORTS...DAKOTAS

CITY           SKY/WX    TMP DP  RH WIND       PRES   REMARKS
WILLISTON      CLOUDY    30  28  92 W10       29.60R WCI  21
MINOT          CLOUDY    29  27  92 SW6       29.54R FOG     WCI  23
DICKINSON      CLEAR     19  16  88 W13       29.56R WCI   6
BEACH            N/A     21  19  93 W13       29.63R WCI   9
CROSBY         CLOUDY    28  28 100 NW9       29.59R FOG     WCI  20
TIOGA          CLOUDY    28  28 100 NW16      29.57R FOG     WCI  17
WATFORD CITY   CLOUDY    23  21  93 SW7       29.60R WCI  15
BISMARCK       FOG       17  15  92 CALM      29.60R VSB 1/2
GRAND FORKS    FOG       34  32  92 CALM      29.56R VSB 1/4
FARGO          FOG       36  34  92 CALM      29.57R VSB 1/4
BUFFALO SD       N/A     23  19  85 NW9       29.54R WCI  13
RAPID CITY     CLOUDY    28  22  78 N12       29.62R WCI  18
$$

REGIONAL REPORTS...WYOMING/IDAHO/WASHINGTON

CITY           SKY/WX    TMP DP  RH WIND       PRES   REMARKS
GILLETTE       CLEAR     29  24  82 CALM      29.63R
SHERIDAN       CLOUDY    21  15  78 VRB5      29.65R
BUFFALO WY     CLOUDY    29  16  58 W7        29.64R WCI  22
CODY           CLOUDY    25  18  74 CALM      29.69R
YELLOWSTONE LA   N/A     19  16  88 CALM      29.73R
IDAHO FALLS    CLOUDY    27  24  89 S12       29.81R WCI  17
SALMON         CLEAR     12  10  92 CALM      29.80R
BOISE          PTCLDY    37  30  75 SE13      29.78R WCI  29
SPOKANE        LGT RAIN  34  31  88 CALM      29.67R
$$

REGIONAL REPORTS...ALBERTA

CITY           SKY/WX    TMP DP  RH WIND       PRES   REMARKS
EDMONTON       CLOUDY    21  18  86 N5        29.81R
CALGARY        CLOUDY    27  23  86 NW7       29.71R WCI  19
LETHBRIDGE     MOCLDY    23  21  93 NW8       29.70R WCI  14
MEDICINE HAT   CLOUDY    28  28 100 SW5       29.69R FOG
WATERTON GATE    N/A     27  21  80 SW3         N/A
CARDSTON         N/A     25  18  74 W3          N/A
MILK RIVER       N/A     23  19  86 NW12        N/A  WCI  12
$$

REGIONAL REPORTS...SASKATCHEWAN

CITY           SKY/WX    TMP DP  RH WIND       PRES   REMARKS
SWIFT CURRENT  FRZ RAIN  28  28 100 NW17      29.59R VSB 5/8 WCI  16
REGINA         FLURRIES  25  23  93 NW14      29.57R WCI  13
SASKATOON      FLURRIES  27  25  93 N7        29.62R WCI  19
VAL MARIE        N/A     27  25  93 N9          N/A  WCI  17
ROCKGLEN         N/A     25  25 100 NW9         N/A  WCI  15
ASSINIBOIA       N/A     21  21 100 N9          N/A  WCI  11
$$




USA.gov is the U.S. government's official web portal to all federal, state and local government web resources and services.